Вернуться в каталог

STARLINK-2543

АктивенСвязьVLEO
NORAD 48278·PAYLOAD·🇺🇸 United States

Запущен Apr 29, 2021 с Cape Canaveral Space Force Station

Loading…

Ближайшие Пролёты (ближайшие 24 часа)

TLE

СвежийSource: CelesTrak SupGP

Эпоха: Sep 15, 2026, 02:16 UTC

1 48278C 21036C   26258.09493056 -.00020253  00000+0 -65139-3 0  2588
2 48278  53.1570 222.9429 0001293  93.7175  69.9210 15.31706422    18

Отслеживайте STARLINK-2543 в реальном времени с AllMySat

Download on the App Store